This demonstration page uses our WeatherBlox Daily Observations layout. Learn more.

Hourly Observations for January 28, 2020

Temp ( °F °C ) Dew Point ( °F °C ) Humidity (%) Winds ( mph kmh ) Pressure ( in mb ) Visibility ( mi km ) Precip ( " mm )
12:30 am 00:30 Cloudy 31 -0.6 27 -2.8 85 85 N 6 9 30.22 1023 10 16.0934 0 0
12:54 am 00:54 Cloudy 31 -0.6 27 -2.8 85 85 N 5 7 30.19 1022 10 16.0934 0 0
1:19 am 01:19 Cloudy 31 -0.6 27 -2.8 85 85 NNE 3 6 30.22 1023 10 16.0934 0 0
1:54 am 01:54 Cloudy 31 -0.6 27 -2.8 85 85 NNE 6 9 30.19 1022 10 16.0934 0 0
2:54 am 02:54 Cloudy 31 -0.6 25 -3.9 79 79 N 7 11 30.19 1022 10 16.0934 0 0
3:54 am 03:54 Cloudy 30 -1.1 25 -3.9 82 82 NNW 5 7 30.18 1022 10 16.0934 0 0
4:41 am 04:41 Cloudy 30 -1.1 25 -3.9 82 82 N 7 11 30.21 1023 10 16.0934 0 0
4:54 am 04:54 Cloudy 30 -1.1 25 -3.9 82 82 NNE 6 9 30.17 1022 10 16.0934 0 0
5:54 am 05:54 Cloudy 30 -1.1 26 -3.3 85 85 N 5 7 30.17 1022 10 16.0934 0 0
6:54 am 06:54 Cloudy 29 -1.7 26 -3.3 89 89 N 6 9 30.18 1022 10 16.0934 0 0
7:54 am 07:54 Cloudy 29 -1.7 26 -3.3 89 89 NNE 6 9 30.19 1022 10 16.0934 0 0
8:54 am 08:54 Cloudy 29 -1.7 25 -3.9 85 85 NNE 7 11 30.2 1023 10 16.0934 0 0
9:50 am 09:50 Cloudy 30 -1 27 -3 86 86 NE 6 9 30.22 1024 10 16.0934 0 0
9:54 am 09:54 Cloudy 29 -1.7 25 -3.9 85 85 N 9 15 30.2 1023 10 16.0934 0 0
10:06 am 10:06 Cloudy 29 -1.7 25 -3.9 85 85 NE 9 15 30.22 1023 9 14.48406 0 0
10:25 am 10:25 Cloudy 29 -1.7 26 -3.3 89 89 ENE 7 11 30.21 1023 10 16.0934 0 0
10:54 am 10:54 Cloudy 29 -1.7 25 -3.9 85 85 NE 7 11 30.18 1022 10 16.0934 0 0
11:05 am 11:05 Cloudy 30 -1.1 25 -3.9 82 82 ENE 9 15 30.21 1023 10 16.0934 0 0
11:54 am 11:54 Cloudy 29 -1.7 25 -3.9 85 85 E 5 7 30.19 1022 10 16.0934 0 0
12:42 pm 12:42 Cloudy 30 -1.1 25 -3.9 82 82 Calm 30.22 1023 10 16.0934 0 0
12:54 pm 12:54 Cloudy 29 -1.7 25 -3.9 85 85 Calm 30.18 1022 10 16.0934 0 0
1:54 pm 13:54 Cloudy 31 -0.6 25 -3.9 79 79 Calm 30.15 1021 10 16.0934 0 0
2:05 pm 14:05 Cloudy 30 -1.1 25 -3.9 82 82 Calm 30.18 1022 10 16.0934 0 0
2:54 pm 14:54 Cloudy 31 -0.6 25 -3.9 79 79 Calm 30.13 1020 10 16.0934 0 0
3:54 pm 15:54 Cloudy 31 -0.6 26 -3.3 82 82 N 5 7 30.13 1020 10 16.0934 0 0
4:54 pm 16:54 Cloudy 30 -1.1 25 -3.9 82 82 NE 5 7 30.12 1020 10 16.0934 0 0
5:54 pm 17:54 Cloudy 30 -1.1 25 -3.9 82 82 ENE 3 6 30.14 1021 10 16.0934 0 0
6:54 pm 18:54 Cloudy 30 -1.1 25 -3.9 82 82 ESE 3 6 30.14 1021 10 16.0934 0 0
7:54 pm 19:54 Cloudy with Light Snow 30 -1.1 25 -3.9 82 82 E 3 6 30.15 1021 7 11.26538 0.001 0.001
8:04 pm 20:04 Cloudy with Light Snow 30 -1.1 25 -3.9 82 82 E 5 7 30.18 1022 2.5 4.02335 0.001 0.001
8:31 pm 20:31 Cloudy with Light Snow 29 -1.7 26 -3.3 89 89 E 3 6 30.18 1022 1.5 2.41401 0.01 0.254
8:54 pm 20:54 Cloudy with Light Snow 29 -1.7 26 -3.3 89 89 ESE 3 6 30.15 1021 1.5 2.41401 0.02 0.508
9:10 pm 21:10 Cloudy with Light Snow 29 -1.7 26 -3.3 89 89 ESE 6 9 30.18 1022 2 3.21868 0.001 0.001
9:41 pm 21:41 Cloudy with Light Snow 29 -1.7 26 -3.3 89 89 ESE 5 7 30.19 1022 4 6.43736 0.001 0.001
9:51 pm 21:51 Cloudy with Light Snow 28 -2 27 -3 93 93 ESE 5 7 30.19 1022 2.5 4.02335 0.01 0.254
9:54 pm 21:54 Cloudy with Light Snow 29 -1.7 26 -3.3 89 89 ESE 5 7 30.16 1021 1.75 2.816345 0.01 0.254
10:11 pm 22:11 Cloudy with Light Snow 29 -1.7 26 -3.3 89 89 ESE 5 7 30.19 1022 1.5 2.41401 0.001 0.001
10:27 pm 22:27 Cloudy with Light Snow 28 -2.2 26 -3.3 92 92 ESE 5 7 30.19 1022 1.25 2.011675 0.01 0.254
10:50 pm 22:50 Cloudy with Light Snow 28 -2 25 -4 86 86 ESE 3 6 30.2 1023 1.5 2.41401 0.02 0.508
10:54 pm 22:54 Cloudy with Light Snow 28 -2.2 25 -3.9 88 88 ESE 3 6 30.17 1022 1.75 2.816345 0.03 0.762
11:54 pm 23:54 Cloudy with Light Snow 28 -2.2 26 -3.3 92 92 SE 3 6 30.17 1022 2 3.21868 0.01 0.254

Powered by AerisWeather